Вернуться в каталог

STARLINK-36875

АктивенСвязьSSO
NORAD 68300·PAYLOAD·🇺🇸 United States

Запущен Mar 20, 2026 с Vandenberg Space Force Base

Loading…

Ближайшие Пролёты (ближайшие 24 часа)

TLE

СвежийSource: CelesTrak SupGP

Эпоха: Sep 15, 2026, 03:22 UTC

1 68300C 26057G   26258.14076389  .00012767  00000+0  39630-3 0  2582
2 68300  97.2856  23.5864 0000966  83.4467 151.4017 15.33434654    15

Отслеживайте STARLINK-36875 в реальном времени с AllMySat

Download on the App Store